Theta_e
328 336 348 350 350 349 349 349 349 349 349 349 348 349 348 348 347 347 347 347 348 348 346 344 343 344 343 344 343 341 339 339 339 341 340 344 347 349 349 351 350 349 351
330 338 346 349 351 350 350 348 348 348 349 348 348 346 345 344 343 343 343 343 348 346 344 342 340 338 339 339 339 337 337 335 333 335 335 338 345 351 350 349 349 348 349
332 337 343 348 350 351 350 349 348 347 349 348 347 345 343 340 339 338 339 339 340 343 342 340 336 335 335 335 334 332 331 329 327 328 332 337 343 349 348 346 346 345 347
333 337 343 345 349 350 350 350 349 349 349 348 347 343 340 338 339 338 337 337 338 337 336 335 332 331 330 330 327 327 328 325 324 326 331 335 339 347 346 345 344 344 344
333 336 338 344 348 350 349 349 349 349 350 348 345 342 339 338 337 336 336 336 336 335 333 329 326 325 325 324 324 324 324 323 323 323 326 334 342 343 346 344 343 342 343
332 333 335 344 348 348 348 349 350 349 348 344 342 340 339 336 334 333 332 335 334 331 328 324 322 322 322 321 321 320 319 318 316 319 323 328 340 345 345 344 342 343 342
329 331 335 341 345 345 346 347 346 345 344 342 338 338 336 334 331 329 329 330 327 325 322 321 321 321 319 319 318 317 315 313 311 315 318 324 334 337 338 337 337 338 339
328 328 332 334 339 341 342 343 342 342 339 338 337 336 334 331 328 326 326 325 323 322 322 322 321 319 318 317 316 314 311 308 307 311 315 320 330 332 332 332 331 332 333
324 325 328 333 335 333 337 339 339 339 336 337 336 334 331 328 326 324 323 323 323 322 322 320 319 318 316 315 312 310 308 306 304 308 311 318 325 328 328 328 328 328 329
320 322 324 327 330 331 332 331 332 334 333 335 333 330 327 326 325 324 323 323 322 321 319 317 317 315 313 311 309 306 303 302 301 305 308 313 319 323 324 325 325 325 326
314 317 320 323 325 326 326 327 328 329 331 330 327 324 320 318 318 318 318 323 321 318 316 314 313 311 309 307 305 302 298 298 299 301 306 310 314 318 320 321 321 322 323
312 313 315 318 320 320 320 324 326 324 325 323 320 317 312 311 312 311 315 319 319 316 313 311 308 303 297 297 297 297 296 296 297 298 303 308 312 314 316 318 319 320 322
313 313 312 314 316 316 318 318 319 317 318 315 313 309 308 307 308 309 310 308 307 305 304 302 298 296 296 296 295 295 295 295 296 296 300 304 308 311 313 315 318 321 321
308 311 311 311 312 313 314 314 314 314 312 310 309 306 304 304 305 304 304 302 301 299 297 296 295 295 295 294 294 294 294 295 295 295 296 302 306 309 312 315 319 318 319
305 308 309 310 311 311 310 312 311 312 310 308 306 303 301 301 302 301 300 297 296 294 295 294 294 293 294 293 293 293 293 293 293 294 297 301 306 310 314 315 317 318 319
305 306 308 308 310 309 310 309 310 309 308 305 304 302 299 300 300 299 296 294 293 293 293 293 293 292 293 293 292 292 292 293 293 293 295 300 304 309 313 316 317 319 319
302 304 305 306 308 308 308 307 309 307 304 304 303 300 298 298 297 297 295 293 292 292 292 292 291 291 291 291 291 291 292 292 292 293 295 297 302 307 313 313 315 316 319
300 299 303 305 305 307 307 306 307 306 304 304 302 300 298 297 296 294 294 293 292 291 292 291 290 290 290 290 290 290 291 292 292 292 294 297 301 303 305 307 309 310 313
300 299 298 302 304 305 306 305 305 304 304 303 301 299 298 296 295 294 294 293 291 290 290 290 289 290 289 289 289 289 290 291 291 290 292 295 296 294 295 299 300 301 302
299 300 298 298 302 303 304 303 301 299 301 300 299 298 297 296 294 294 293 292 290 290 289 289 289 288 289 289 286 288 289 290 290 290 292 293 291 291 292 291 293 293 296
297 297 297 295 298 300 300 297 296 296 297 297 298 297 296 296 294 293 292 291 290 289 289 289 288 288 287 287 287 287 288 288 288 288 290 290 289 289 290 290 291 291 291
297 296 297 296 296 297 299 299 299 299 298 297 297 296 296 295 294 293 292 291 290 289 288 288 288 286 287 286 288 288 285 287 288 288 288 287 288 288 288 288 288 289 290
295 295 296 296 295 296 298 297 291 293 292 293 293 293 293 294 293 293 291 291 289 289 288 288 288 288 286 285 285 289 284 287 286 286 287 287 287 287 288 287 287 288 289
296 296 295 295 295 295 296 295 294 295 293 294 295 294 293 293 292 292 291 290 289 289 288 287 287 288 287 285 285 285 286 287 286 283 285 286 286 286 287 287 287 287 288
294 294 294 294 294 294 295 296 294 295 295 292 294 293 292 291 292 290 290 289 289 288 288 287 286 286 287 287 286 284 284 284 284 285 284 284 285 286 286 286 286 287 287
293 292 292 292 292 293 293 294 293 294 293 290 290 291 290 290 289 289 289 288 289 288 287 287 287 287 286 286 286 286 285 285 283 283 283 283 284 284 285 286 285 286 287
Wind_Speed
7 10 13 15 17 15 13 12 11 10 11 10 10 10 10 10 9 9 8 7 10 11 12 11 11 12 9 11 13 13 11 12 13 13 13 14 6 7 11 11 9 11 11
10 11 11 14 15 15 14 13 11 9 11 12 11 10 9 8 8 7 9 11 11 10 11 11 11 8 8 8 12 11 10 11 13 12 12 12 12 11 15 13 12 12 13
13 11 10 12 13 14 14 13 12 12 13 12 13 12 10 9 6 4 5 6 8 9 11 11 7 6 7 9 8 8 9 11 12 11 11 8 9 10 13 13 12 13 13
13 11 10 13 13 12 14 13 12 13 14 14 14 11 8 9 8 8 6 5 6 6 6 6 6 6 7 8 7 7 8 10 11 10 7 7 6 9 11 12 13 13 13
11 11 9 13 15 15 14 13 12 14 14 14 13 11 8 9 9 8 7 7 7 6 7 7 5 6 7 8 7 8 9 10 11 9 8 7 6 7 10 11 11 12 11
10 8 9 12 13 15 15 15 16 15 14 11 9 10 9 8 8 8 7 8 9 8 7 6 7 8 8 8 8 10 10 10 9 7 7 8 8 12 12 12 12 11 11
9 8 7 9 11 11 11 11 11 11 10 9 8 9 9 9 9 8 8 9 8 8 8 8 9 9 8 9 10 10 10 11 7 8 7 8 9 9 11 11 11 12 12
10 6 5 7 8 13 10 11 10 11 12 12 12 11 12 11 10 10 10 9 9 9 9 9 9 9 10 10 10 11 12 10 8 7 6 6 8 10 9 9 11 10 9
9 8 6 6 8 9 10 10 10 12 14 11 12 13 12 11 11 11 11 11 11 11 10 10 10 10 10 10 10 11 12 12 8 5 6 5 8 8 8 8 9 9 10
7 9 10 8 7 8 6 9 9 11 15 12 12 12 10 9 10 10 9 11 11 11 10 10 10 10 10 11 10 10 10 10 7 6 5 5 7 6 7 8 9 9 10
7 9 9 9 8 8 7 8 11 10 11 11 10 11 9 5 7 6 7 10 12 11 10 9 9 10 11 11 10 9 7 4 5 4 3 7 6 6 7 7 7 7 8
12 12 9 9 9 8 6 7 8 6 6 6 6 7 6 6 6 6 6 9 11 11 10 10 9 8 6 3 4 6 4 4 4 4 4 7 6 5 5 6 7 7 8
13 9 12 10 9 10 8 6 4 3 5 5 9 8 7 6 5 4 3 4 4 7 4 5 5 3 4 3 3 3 4 4 3 3 4 7 5 5 5 5 5 8 8
12 13 12 12 11 10 7 7 7 7 6 6 8 9 7 5 6 6 5 5 5 3 5 4 3 4 4 5 4 4 4 3 2 2 3 5 4 4 5 5 8 7 8
12 13 14 14 14 11 10 8 8 9 8 9 9 9 8 8 8 7 6 6 5 5 5 5 4 4 4 4 4 4 4 4 3 2 1 4 4 4 7 8 8 9 9
14 15 15 17 16 14 14 12 10 8 9 9 8 10 11 8 8 8 7 6 6 5 5 5 4 4 3 3 4 4 3 3 3 3 2 2 4 4 8 10 9 11 10
17 14 17 17 16 17 18 14 11 10 9 10 9 12 12 11 11 10 8 7 7 6 7 5 5 3 3 3 4 3 3 3 3 4 3 3 2 5 8 10 10 10 12
12 17 15 14 18 18 18 14 12 11 11 10 10 10 13 13 13 11 9 9 8 7 6 6 5 4 3 3 3 3 3 4 4 4 4 4 4 5 11 14 12 10 11
15 14 15 17 20 21 18 13 12 12 11 10 10 10 14 13 13 10 9 8 10 7 7 7 4 3 3 3 4 4 4 4 4 4 6 6 7 6 5 12 13 12 9
13 15 15 14 17 17 11 10 8 8 10 10 11 11 15 13 15 12 9 10 9 8 7 7 6 4 3 4 5 5 4 4 3 4 5 5 6 6 5 5 4 5 7
8 11 15 14 16 12 12 11 9 13 12 11 12 15 15 13 14 14 9 10 10 10 9 9 4 5 3 4 5 4 4 4 4 3 3 4 4 4 4 4 3 3 4
7 10 10 14 15 16 13 12 7 10 10 10 9 10 13 14 15 12 11 10 11 9 11 11 7 5 3 6 3 2 4 3 2 2 4 4 5 3 4 4 5 4 3
8 8 10 11 14 15 15 9 3 4 3 8 9 9 12 15 14 15 15 12 12 10 10 11 10 8 5 4 5 2 4 3 3 3 5 4 5 2 3 3 4 4 4
8 6 7 9 11 11 14 13 17 14 12 9 12 10 10 14 15 15 14 13 13 10 11 11 9 7 6 6 3 2 2 3 4 4 3 4 4 4 3 2 3 4 4
7 6 5 5 6 9 11 12 11 13 6 2 6 11 13 13 14 15 14 14 14 10 11 13 13 11 6 5 4 4 1 2 1 3 4 5 4 3 3 0 1 3 4
7 8 6 2 2 4 8 10 11 12 7 6 8 10 9 8 10 14 15 15 15 14 14 12 11 12 11 6 6 6 6 5 4 3 2 3 3 3 1 1 2 3 4
Wind_Direction
220 181 177 176 168 165 158 153 150 150 141 133 126 117 103 95 86 74 72 90 98 88 80 72 59 52 59 58 61 57 45 40 42 40 30 30 76 83 87 71 51 52 45
156 178 179 176 172 167 164 161 157 154 153 146 130 119 118 104 99 92 78 61 86 96 93 81 66 70 60 57 56 56 46 43 47 40 37 37 25 81 70 62 48 43 35
161 175 180 179 177 177 170 168 167 168 163 153 140 136 146 120 123 122 100 78 78 87 87 78 87 83 75 69 64 61 56 54 51 44 40 47 47 62 72 67 59 51 38
167 171 176 175 180 182 170 173 177 186 167 162 156 134 152 146 153 152 153 130 114 104 95 91 89 90 83 82 75 69 72 66 62 52 54 43 40 56 73 70 65 57 48
173 171 175 176 185 179 176 182 186 182 175 160 147 143 169 166 161 159 154 154 154 149 117 120 106 96 85 75 68 65 71 76 72 69 55 41 45 68 79 75 69 63 51
171 174 179 161 176 182 188 184 188 188 161 142 146 158 173 174 169 159 163 141 132 133 124 117 99 86 76 75 69 65 66 70 71 70 60 36 51 70 74 75 74 69 60
170 177 182 157 168 151 155 165 163 170 143 146 167 176 178 177 170 163 158 141 139 133 125 118 108 94 89 77 67 68 70 70 68 61 50 40 56 62 68 60 56 53 55
173 181 187 181 201 166 170 172 168 162 190 187 174 176 187 177 172 166 159 153 146 138 131 118 113 104 90 79 69 65 65 62 63 62 46 38 35 68 70 73 64 55 51
174 177 191 207 225 192 181 187 189 181 203 190 179 184 184 177 175 170 161 159 153 143 135 131 122 109 98 92 87 76 66 61 65 55 44 34 30 61 62 64 63 58 52
191 192 191 196 210 201 202 212 198 188 204 172 181 174 166 167 172 167 161 163 155 144 140 132 124 112 104 95 88 83 80 75 70 57 42 34 26 46 59 61 64 62 63
219 209 199 196 193 180 191 209 208 203 169 170 168 157 141 151 151 143 160 167 155 150 141 131 118 104 92 88 81 75 75 67 70 59 44 27 31 45 53 59 66 72 75
214 212 206 199 191 179 183 189 187 172 162 160 153 148 145 151 156 157 176 156 151 147 140 130 118 101 92 91 82 71 70 80 72 59 33 23 36 42 54 64 70 78 81
209 203 202 199 194 187 188 179 181 162 164 162 163 158 156 157 167 161 143 116 110 100 103 102 110 109 113 102 80 78 81 67 64 64 34 18 25 44 54 65 82 85 83
195 205 197 196 196 196 184 187 179 177 175 173 175 166 163 169 177 167 159 145 141 144 140 145 148 134 116 105 105 101 87 80 69 57 42 21 29 68 89 101 89 90 92
216 208 202 192 198 195 196 190 188 188 183 178 175 178 170 176 180 171 170 164 163 162 166 161 152 144 132 117 101 102 94 82 76 84 80 18 58 101 110 107 112 100 94
219 213 199 200 197 188 197 194 196 192 187 181 181 185 181 178 176 180 177 177 175 177 165 162 159 153 137 130 106 93 88 69 69 84 90 58 73 85 117 108 110 102 112
218 208 204 201 198 198 199 196 193 192 186 190 191 185 184 182 182 180 177 180 181 175 163 155 143 140 145 124 111 98 91 86 91 96 102 104 67 360 92 107 115 110 109
211 208 200 196 198 202 204 197 195 192 191 193 190 190 189 187 183 179 179 184 175 171 168 160 154 159 161 158 140 114 108 108 106 108 110 107 91 71 67 68 73 83 82
216 211 205 198 198 200 202 201 202 196 198 195 193 191 188 189 184 182 186 178 171 170 172 164 163 178 174 156 129 103 103 113 97 107 112 110 101 91 89 80 71 64 67
214 213 207 199 205 200 194 193 195 196 202 194 197 197 188 189 184 182 179 171 170 171 173 176 171 167 163 154 121 94 99 123 113 98 122 121 113 104 96 85 85 66 66
224 209 205 195 197 182 188 184 199 208 207 204 201 195 189 192 188 186 182 171 173 180 181 177 151 163 164 174 135 105 94 83 109 112 144 126 109 87 80 61 69 62 48
247 224 211 206 195 193 193 195 202 196 215 211 205 202 194 186 184 184 180 182 184 177 175 177 170 157 148 193 153 114 152 155 179 143 152 146 142 97 107 99 80 86 95
268 231 225 216 203 197 196 183 121 118 149 187 198 194 194 187 184 183 182 180 179 184 189 187 186 175 157 190 225 161 144 205 148 189 214 195 186 146 147 122 82 96 101
286 292 236 201 206 204 192 190 200 204 199 210 199 193 194 193 188 188 184 180 183 184 184 190 185 183 152 168 186 206 63 114 167 176 210 231 231 227 185 130 97 103 122
329 317 275 235 205 190 205 210 202 214 214 146 187 187 186 183 190 186 188 184 184 187 192 183 180 192 193 166 162 154 122 44 110 146 164 181 222 212 192 230 103 131 128
353 356 347 332 239 180 182 207 211 219 201 174 172 181 194 191 187 191 188 187 188 189 189 190 190 193 191 189 180 173 161 165 186 166 161 167 184 155 182 258 158 149 148